EW7772 Weather Reports


time (UTC)temp
C
wind
direction
speed
KPH
gust
KPH
rain 1hr
cm
rain 24hr
cm
rain mn
cm
humidity
%
barometer
mb
20260507130036 13 276 0.0 6.4 0.03 1.24 0.28 73 1015.2
20260507124531 12 283 0.0 6.4 0.03 1.24 0.28 76 1015.2
20260507123038 13 288 0.0 3.2 0.00 1.22 0.25 73 1015.1
20260507121530 13 277 0.0 3.2 0.00 1.22 0.25 75 1015.1
20260507120025 12 235 0.0 3.2 0.00 1.22 0.25 77 1015.2
20260507114522 11 257 0.0 4.8 0.00 1.22 0.25 81 1015.2
20260507113056 11 290 0.0 3.2 0.00 1.22 0.25 83 1015.2
20260507111600 11 248 0.0 4.8 0.00 1.22 0.25 80 1015.3
20260507110059 11 302 0.0 8.0 0.00 1.22 0.25 79 1015.3
20260507104555 11 265 0.0 4.8 0.00 1.22 0.25 81 1015.2
20260507103056 11 251 1.6 6.4 0.00 1.22 0.25 81 1015.1
20260507101552 11 259 0.0 8.0 0.00 1.22 0.25 83 1015.0
20260507100051 11 249 0.0 3.2 0.00 1.22 0.25 87 1015.1
20260507094558 10 221 0.0 8.0 0.00 1.22 0.25 84 1015.1
20260507093046 11 327 0.0 8.0 0.00 1.22 0.25 85 1014.7
20260507091543 10 296 0.0 6.4 0.00 1.22 0.25 90 1014.6
20260507090043 10 288 0.0 6.4 0.03 1.22 0.25 92 1014.5
20260507084541 10 290 0.0 4.8 0.05 1.22 0.25 94 1014.4
20260507083037 9 272 0.0 6.4 0.10 1.22 0.25 95 1014.3
20260507081539 9 295 0.0 3.2 0.13 1.22 0.25 94 1014.1
20260507080034 9 284 0.0 4.8 0.13 1.19 0.23 94 1013.9
20260507074533 9 298 0.0 4.8 0.10 1.17 0.20 94 1013.7
20260507073031 9 284 0.0 6.4 0.05 1.12 0.15 94 1013.5
20260507071529 9 258 0.0 4.8 0.05 1.09 0.15 94 1013.3
20260507070039 9 314 0.0 11.3 0.05 1.09 0.13 93 1013.1
20260507064524 9 314 0.0 3.2 0.03 1.07 0.10 93 1013.0
20260507063022 9 295 0.0 8.0 0.03 1.07 0.10 93 1012.8
20260507061523 9 325 0.0 3.2 0.03 1.07 0.10 93 1012.7
20260507060025 9 297 0.0 6.4 0.03 1.04 0.08 93 1012.7
20260507054518 9 311 0.0 3.2 0.03 1.04 0.08 93 1012.5
20260507053016 9 298 0.0 3.2 0.05 1.04 0.08 93 1012.4
20260507051515 8 300 0.0 6.4 0.05 1.04 0.08 93 1012.2
20260507050021 8 310 0.0 6.4 0.03 1.02 0.05 93 1012.0
20260507044511 8 309 0.0 1.6 0.03 1.02 0.05 92 1011.9
20260507043009 8 267 0.0 4.8 0.00 0.99 0.05 92 1011.6
20260507041507 8 270 0.0 8.0 0.00 0.99 0.05 92 1011.4
20260507040006 8 263 0.0 6.4 0.00 0.99 0.05 92 1011.3
20260507034505 8 292 0.0 3.2 0.00 0.99 0.05 92 1011.2
20260507033003 8 296 0.0 0.0 0.03 0.99 0.05 92 1011.1
20260507031501 8 296 0.0 0.0 0.03 0.99 0.05 92 1011.0
20260507030111 8 296 0.0 0.0 0.03 0.99 0.05 92 1010.9
20260507024613 8 296 0.0 0.0 0.03 0.99 0.05 92 1010.9
20260507023057 8 296 0.0 0.0 0.00 0.99 0.03 92 1010.8
20260507021559 8 296 0.0 0.0 0.00 0.99 0.03 92 1010.8
20260507014559 9 296 0.0 0.0 0.00 0.99 0.03 92 1010.6
20260507013101 9 296 0.0 0.0 0.00 0.99 0.03 92 1010.5
20260507011557 9 296 0.0 0.0 0.00 0.99 0.03 93 1010.4
20260507010053 9 296 0.0 0.0 0.00 0.99 0.03 93 1010.4
20260507004552 9 296 0.0 0.0 0.00 0.99 0.03 93 1010.4
20260507003051 9 296 0.0 0.0 0.00 0.99 0.03 92 1010.4
20260507001551 9 296 0.0 0.0 0.00 0.99 0.03 92 1010.4
20260507000050 9 296 0.0 1.6 0.00 0.99 0.03 91 1010.5
20260506234555 9 288 0.0 3.2 0.00 0.99 0.03 91 1010.6
20260506233052 9 288 0.0 6.4 0.00 0.99 0.03 90 1010.6
20260506231553 9 329 1.6 9.7 0.00 0.99 0.03 90 1010.5
20260506230044 10 360 0.0 4.8 0.00 0.99 0.03 90 1010.4
20260506224543 10 288 0.0 6.4 0.03 0.99 0.03 91 1010.4
20260506223041 10 314 0.0 3.2 0.03 0.99 0.03 91 1010.3
20260506221539 10 260 0.0 9.7 0.03 0.99 0.03 91 1010.0
20260506220037 10 297 1.6 8.0 0.03 0.99 0.03 91 1009.9
20260506214536 10 317 0.0 3.2 0.00 0.97 0.97 93 1009.9
20260506213038 10 299 0.0 0.0 0.00 0.97 0.97 94 1009.8
20260506211534 10 299 0.0 0.0 0.00 0.97 0.97 94 1009.7
20260506210035 10 299 0.0 0.0 0.00 0.97 0.97 94 1009.7
20260506204535 10 299 0.0 0.0 0.00 0.99 0.97 94 1009.6
20260506203038 10 299 0.0 0.0 0.00 0.99 0.97 94 1009.6
20260506201536 10 299 0.0 0.0 0.00 0.99 0.97 94 1009.6
20260506200030 10 299 0.0 0.0 0.00 0.99 0.97 94 1009.4
20260506194529 10 299 0.0 0.0 0.00 0.99 0.97 94 1009.3
20260506193027 10 299 0.0 0.0 0.03 0.99 0.97 94 1009.1
20260506191526 10 299 0.0 0.0 0.03 0.99 0.97 93 1008.8
20260506190023 10 299 0.0 0.0 0.03 0.99 0.97 93 1008.6
20260506184523 10 299 0.0 4.8 0.05 0.99 0.97 92 1008.5
20260506183022 10 300 0.0 3.2 0.05 0.99 0.94 92 1008.3
20260506181522 10 279 0.0 4.8 0.05 0.99 0.94 92 1008.1
20260506180026 10 292 0.0 4.8 0.05 0.99 0.94 91 1007.9
20260506174522 11 306 0.0 3.2 0.05 0.97 0.91 93 1007.9
20260506173022 11 293 0.0 0.0 0.05 0.94 0.89 94 1007.6
20260506171520 11 293 0.0 0.0 0.05 0.91 0.89 94 1007.6
20260506170021 11 293 0.0 1.6 0.05 0.91 0.89 94 1007.5
20260506164519 11 293 0.0 4.8 0.08 0.91 0.89 93 1007.3
20260506163025 11 294 0.0 3.2 0.05 0.89 0.86 93 1007.2
20260506161518 11 295 0.0 3.2 0.05 0.89 0.84 92 1007.1
20260506160017 11 290 0.0 4.8 0.03 0.86 0.81 92 1007.0
20260506154517 12 313 0.0 6.4 0.00 0.84 0.79 93 1006.8
20260506153016 12 304 0.0 9.7 0.05 0.84 0.79 93 1006.5
20260506151516 12 307 0.0 3.2 0.41 0.84 0.79 93 1006.6
20260506150016 11 306 0.0 3.2 0.76 0.84 0.79 93 1006.6
20260506144515 11 306 0.0 6.4 0.79 0.86 0.79 92 1006.4
20260506143023 11 293 0.0 4.8 0.71 0.79 0.71 86 1006.3
20260506141515 13 278 0.0 9.7 0.38 0.43 0.38 82 1006.1
20260506140014 16 75 0.0 1.6 0.05 0.10 0.05 78 1005.6
20260506134513 16 75 0.0 1.6 0.00 0.23 0.00 69 1005.5
20260506133012 17 71 0.0 1.6 0.00 0.23 0.00 70 1005.3
20260506131510 17 70 0.0 1.6 0.00 0.23 0.00 71 1005.3